Hundvaag 1 weather for Jun 1998
Month no. 132
Obs.
Da.
Temp. Dew Point Precip. Wind
Speed
Wind gusts Cloud cover Press. Humidity Wind dir. Sunny OPT
01.06.1998 11,3   0,0     8       1  
02.06.1998 10,0   0,0     0       1  
03.06.1998 9,2   3,0     0          
04.06.1998 8,6   5,0     0       1  
05.06.1998 8,4   0,0     4       1  
06.06.1998 13,1   0,0     9       1  
07.06.1998 15,3   0,0     0          
08.06.1998 11,8   4,0     0          
09.06.1998 9,1   7,0     0          
10.06.1998 13,1   7,0     0       1  
11.06.1998 8,8   1,0     0          
12.06.1998 8,6   3,0     0       1  
13.06.1998 8,9   0,0     8       1  
14.06.1998 13,7   0,0     9       1  
15.06.1998 11,2   0,0     0       1  
16.06.1998 10,6   0,0     9          
17.06.1998 9,6   11,0     0          
18.06.1998 9,5   5,0     0          
19.06.1998 7,4   1,0     9       1  
20.06.1998 14,8   0,0     5       1  
21.06.1998 18,7   0,0     3       1  
22.06.1998 14,1   0,0     2       1  
23.06.1998 11,7   0,0     0       1  
24.06.1998 11,3   0,0     10       1  
25.06.1998 15,0   0,0     0          
26.06.1998 12,7   1,0     3       1  
27.06.1998 12,4   22,0     10          
28.06.1998 12,1   22,0     10          
29.06.1998 11,7   24,0     0       1  
30.06.1998 12,1   5,0     3       1  
                       
Avrg/Sum 11,5   121,0     3,4       19